x

Pembrey Sands Samos (03605) Weather Station

8:00am - Thu 2nd Apr 2015 All times are BST. 1 hours from GMT.

  • Wind
    13mph, 29mph gusts
  • Air Temp 49°f
  • Sea Pressure 1020mb
  • Pembrey Sands Samos
  • Pembrey Sands Samos

More Historic Weather Station data

Upgrade to MSW Pro to gain access to the past 30 days of data for over 8000 Wavebouys and Weather Stations around the globe.

Join Pro

Comparision Forecast

View Surf forecast
   
Thu 04/02 8:00am 13 29 mph 1020mb 49f
7:00am 19 30 mph 1019mb 50f
6:00am 22 30 mph 1019mb 49f
5:00am 25 34 mph 1018mb 50f
4:00am 29 40 mph 1019mb 50f
3:00am 26 37 mph 1019mb 50f
2:00am 30 37 mph 1019mb 50f
1:00am 24 31 mph 1019mb 49f
12:00am 26 33 mph 1020mb 50f
Wed 04/01 11:00pm 26 36 mph 1020mb 50f
10:00pm 30 37 mph 1021mb 49f
9:00pm 26 33 mph 1021mb 48f
8:00pm 26 31 mph 1022mb 48f
7:00pm 23 32 mph 1023mb 47f
6:00pm 23 31 mph 1024mb 48f
5:00pm 26 36 mph 1024mb 47f
4:00pm 23 33 mph 1025mb 49f
3:00pm 24 32 mph 1026mb 49f
2:00pm 24 34 mph 1027mb 49f
1:00pm 25 33 mph 1027mb 49f
12:00pm 24 32 mph 1027mb 48f
11:00am 25 34 mph 1027mb 48f
10:00am 26 36 mph 1027mb 47f
9:00am 22 30 mph 1027mb 45f
8:00am 22 31 mph 1027mb 43f
7:00am 22 29 mph 1026mb 43f
6:00am 22 30 mph 1026mb 42f
5:00am 25 33 mph 1026mb 43f
4:00am 25 32 mph 1026mb 43f
3:00am 23 31 mph 1026mb 42f
2:00am 23 29 mph 1025mb 42f
1:00am 25 38 mph 1024mb 43f
12:00am 29 37 mph 1024mb 43f
Tue 03/31 11:00pm 30 37 mph 1023mb 44f
10:00pm 26 33 mph 1022mb 44f
9:00pm 22 34 mph 1021mb 46f
8:00pm 22 44 mph 1020mb 46f
7:00pm 33 47 mph 1020mb 48f
6:00pm 32 46 mph 1018mb 50f
5:00pm 34 47 mph 1017mb 50f
4:00pm 33 54 mph 1017mb 50f
3:00pm 40 55 mph 1016mb 51f
2:00pm 36 54 mph 1016mb 51f
1:00pm 34 54 mph 1015mb 51f
12:00pm 36 48 mph 1014mb 50f
11:00am 37 52 mph 1013mb 49f
10:00am 37 51 mph 1012mb 48f
9:00am 32 47 mph 1011mb 48f
8:00am 34 53 mph 1009mb 48f
7:00am 36 48 mph 1006mb 48f
6:00am 33 54 mph 1005mb 48f
5:00am 37 53 mph 1004mb 49f
4:00am 40 52 mph 1003mb 50f
3:00am 30 60 mph 1002mb 50f
1:00am 43 61 mph 1001mb 51f
12:00am 48
mph
1001mb 51f
Mon 03/30 11:00pm 41 52 mph 1001mb 50f
10:00pm 40 48 mph 1002mb 50f
9:00pm 36 46 mph 1003mb 50f
8:00pm 32 43 mph 1003mb 50f
7:00pm 28 36 mph 1004mb 49f
6:00pm 30 39 mph 1005mb 49f
5:00pm 26 33 mph 1007mb 48f
4:00pm 26 33 mph 1008mb 47f
3:00pm 28 33 mph 1010mb 47f
2:00pm 19
mph
1011mb 47f
1:00pm 21
mph
1012mb 48f
12:00pm 16
mph
1013mb 49f
11:00am 14
mph
1013mb 49f
10:00am 13
mph
1012mb 47f
9:00am 17
mph
1012mb 45f
8:00am 19
mph
1011mb 44f
7:00am 17
mph
1011mb 44f
6:00am 21
mph
1009mb 44f
5:00am 17
mph
1009mb 45f
4:00am 14
mph
1008mb 45f
3:00am 18
mph
1007mb 45f
2:00am 18
mph
1006mb 45f
1:00am 21 30 mph 1005mb 45f
12:00am 23 31 mph 1005mb 47f
Sun 03/29 11:00pm 15
mph
1003mb 48f
10:00pm 18
mph
1003mb 48f
9:00pm 19 33 mph 1002mb 49f
8:00pm 22 34 mph 1002mb 49f
7:00pm 23 41 mph 1001mb 50f
5:00pm 29 47 mph 1000mb 52f
4:00pm 30 47 mph 1000mb 52f
3:00pm 36 49 mph 999mb 53f
2:00pm 29 53 mph 998mb 53f
1:00pm 40 56 mph 998mb 53f
12:00pm 44 61 mph 997mb 52f
11:00am 46 62 mph 997mb 51f
10:00am 44 54 mph 997mb 51f
9:00am 43 53 mph 998mb 50f